San Angelo, TX

1:06 PM CDT on August 17, 2017 (GMT -0500)
San Angelo Regional-Mathis

Weather History for KSJT - April, 2014

Change the Weather History Date:

Friday, April 11, 2014

  Actual Average Record
Temperature  
Mean Temperature 79 °F 65 °F  
Max Temperature 97 °F 79 °F 97 °F (1993)
Min Temperature 61 °F 51 °F 28 °F (1913)
Degree Days  
Heating Degree Days 0 4  
Month to date heating degree days 34 48  
Since 1 July heating degree days 2436 2266  
Cooling Degree Days 14 3  
Month to date cooling degree days 68 28  
Year to date cooling degree days 126 66  
Growing Degree Days 29 (Base 50)    
Moisture  
Dew Point 44 °F    
Average Humidity 44    
Maximum Humidity 78    
Minimum Humidity 10    
Precipitation  
Precipitation 0.00 in 0.04 in 2.07 in (1969)
Month to date precipitation 0.22 0.47  
Year to date precipitation 0.33 4.25  
Snow  
Snow 0.00 in 0.00 in 0.00 in (2002)
Month to date snowfall 0.0 0.0  
Since 1 July snowfall 1.6 2.2  
Snow Depth 0.00 in    
Sea Level Pressure  
Sea Level Pressure 29.84 in    
Wind  
Wind Speed 12 mph (SSW)    
Max Wind Speed 22 mph    
Max Gust Speed 28 mph    
Visibility 10 miles    
Events      
T = Trace of Precipitation, MM = Missing Value Source: NWS Daily Summary

Daily Weather History Graph

Daily Weather History Graph

Search for Another Location

Airport or City:

Trip Planner

Search our weather history database for the weather conditions in past years. The results will help you decide how hot, cold, wet, or windy it might be!

Date:

Astronomy

Apr. 11, 2014 Rise Set
Actual Time 7:18 AM CDT 8:08 PM CDT
Civil Twilight 6:53 AM CDT 8:32 PM CDT
Nautical Twilight 6:24 AM CDT 9:02 PM CDT
Astronomical Twilight 5:54 AM CDT 9:32 PM CDT
Moon 5:02 PM CDT (4/11) 5:01 AM CDT (4/11)
Length of Visible Light 13h 39m
Length of Day
12h 49m
Waxing Gibbous, 87% of the Moon is Illuminated
Apr 11
Waxing Gibbous
Apr 15
Full
Apr 22
Last Quarter
Apr 29
New
May 6
First Quarter

Hourly Weather History & Observations

Time (CDT) Temp. Dew Point Humidity Pressure Visibility Wind Dir Wind Speed Gust Speed Precip Events Conditions
12:51 AM 75.0 °F 43.0 °F 32% 29.85 in 10.0 mi South 16.1 mph 25.3 mph N/A   Clear
1:51 AM 73.0 °F 45.0 °F 37% 29.84 in 10.0 mi South 19.6 mph 26.5 mph N/A   Clear
3:51 AM 68.0 °F 48.0 °F 49% 29.83 in 10.0 mi South 16.1 mph - N/A   Clear
4:51 AM 64.9 °F 50.0 °F 58% 29.83 in 10.0 mi South 8.1 mph - N/A   Clear
5:51 AM 62.1 °F 51.1 °F 67% 29.85 in 10.0 mi South 8.1 mph - N/A   Clear
6:51 AM 62.1 °F 53.1 °F 72% 29.87 in 10.0 mi SSW 12.7 mph - N/A   Clear
7:51 AM 61.0 °F 54.0 °F 78% 29.90 in 10.0 mi SSW 9.2 mph - N/A   Clear
9:51 AM 72.0 °F 55.0 °F 55% 29.91 in - SSW 15.0 mph - N/A   Unknown
10:51 AM 75.9 °F 53.1 °F 45% 29.91 in 10.0 mi WSW 17.3 mph - N/A   Unknown
11:51 AM 81.0 °F 50.0 °F 34% 29.91 in 10.0 mi SSW 13.8 mph - N/A   Clear
12:51 PM 86.0 °F 48.9 °F 28% 29.89 in 10.0 mi SW 8.1 mph - N/A   Clear
1:51 PM 91.9 °F 42.1 °F 18% 29.84 in 10.0 mi West 5.8 mph - N/A   Clear
3:51 PM 96.1 °F 30.9 °F 10% 29.78 in 10.0 mi SW 9.2 mph - N/A   Clear
4:51 PM 96.1 °F 30.0 °F 10% 29.76 in 10.0 mi South 15.0 mph 20.7 mph N/A   Clear
5:51 PM 93.9 °F 32.0 °F 11% 29.76 in 10.0 mi SSW 15.0 mph 20.7 mph N/A   Clear
6:51 PM 91.9 °F 30.9 °F 11% 29.77 in 10.0 mi SSW 8.1 mph - N/A   Clear
7:51 PM 87.1 °F 33.1 °F 15% 29.79 in 10.0 mi SSW 13.8 mph - N/A   Clear
8:51 PM 82.9 °F 32.0 °F 16% 29.80 in 10.0 mi South 9.2 mph - N/A   Clear
9:51 PM 80.1 °F 39.9 °F 24% 29.82 in 10.0 mi South 6.9 mph - N/A   Clear
10:51 PM 78.1 °F 48.0 °F 35% 29.83 in 10.0 mi South 15.0 mph 23.0 mph N/A   Clear
11:51 PM 75.9 °F 48.9 °F 38% 29.84 in 10.0 mi South 9.2 mph - N/A   Clear